sat.trackr.live / text

‹ back to catalog

FREGAT DEB

NORAD 49271 · 2011-037PF

DEBRIS UNKNOWN UNKNOWN

§ Identity

Operator
Country
CIS
Launch date
2011-07-18
Launch site
TYMSC
Launch vehicle
Mass (kg)
RCS (m²)

Purposes: station

External: N2YO · Heavens-Above · Gunter

§ Orbital elements

Epoch: 2026-09-19T04:41:33.191520Z

Period
115.70 min
Inclination
51.6468°
Eccentricity
0.0944064
Mean motion
12.44551487 rev/d
Perigee alt
744.8 km
Apogee alt
2,229.9 km
Semi-major
7,865.5 km
B*
1.5154e-2
RAAN
78.6970°
Arg perigee
131.6853°
Mean anomaly
236.8792°
Rev number
23,674

§ Raw data

FREGAT DEB1 49271U 11037PF  26262.19552305  .00010835  00000+0  15154-1 0  99962 49271  51.6468  78.6970 0944064 131.6853 236.8792 12.44551487236746

JSON: /api/v1/satellites/49271 · /tle

For live sub-satellite position, see the globe view (requires WebGL).

§ Visibility from observer

Set your observer location to see the next 7 days of passes ≥ 10°. The values pass through the URL so the page stays shareable.

No JS? Fill the form by hand. The geolocation button needs JavaScript.